NOAA NWS Hourly Roundups by Site

Regional Weather Roundup for San Diego, CA

To Select Another Site Choose from List

Select Site:  

000
ASUS46 KSGX 260911
RWRSGX

SAN DIEGO HOURLY WEATHER ROUNDUP
NATIONAL WEATHER SERVICE SAN DIEGO CA
200 AM PDT TUE MAR 26 2019

NOTE: "FAIR" INDICATES FEW OR NO CLOUDS BELOW 12,000 FEET WITH NO
SIGNIFICANT WEATHER AND/OR OBSTRUCTIONS TO VISIBILITY.

CAZ042-043-060-061-PZZ750-775-261000-

GREATER SAN DIEGO AREA

CITY           SKY/WX    TMP DP  RH WIND       PRES   REMARKS
SAN DIEGO AP   MOCLDY    57  51  80 CALM      30.06F
NATIONAL CITY    N/A     55  51  86 CALM      30.05F
CHULA VISTA      N/A     52  50  94 CALM      29.96F
IMPERIAL BEACH PTCLDY    53  50  89 NE3       30.05F
BROWN FIELD    PTCLDY    47  46  97 SE3       30.04F
MIRAMAR MCAS   PTCLDY    52  46  80 NE5       30.04F
MONTGOMERY FLD PTCLDY    54  49  83 N5        30.04F
GILLESPIE FLD  FAIR      50  48  93 MISG      30.04F

$$

NORTH SAN DIEGO COUNTY

CITY           SKY/WX    TMP DP  RH WIND       PRES   REMARKS
CAMP PENDLETON PTCLDY    47  47 100 CALM      30.05F
OCEANSIDE AP   PTCLDY    47  47 100 CALM      30.05S FOG
OCEANSIDE HBR    N/A     52  50  93 S1        30.07F
VISTA            N/A     50  45  83 CALM      30.03S
CARLSBAD       PTCLDY    56  52  86 CALM      30.04F
DEL MAR          N/A     55  53  94 CALM      30.06F
LA JOLLA SCRIP   N/A     56  53  90 CALM      30.05F
FALLBROOK      FAIR      50  48  93 N7        30.05F
ESCONDIDO        N/A     53  48  83 NW1       30.05F
SAN MARCOS       N/A     52  48  88 CALM      30.08F
POWAY            N/A     48  44  87 CALM      30.07S

$$

EAST SAN DIEGO COUNTY

CITY           SKY/WX    TMP DP  RH WIND       PRES   REMARKS
RAMONA         MOCLDY    43  42  97 CALM      30.04F FOG
SANTEE LAKES     N/A     50  47  91 N1        30.00F
LA MESA          N/A     52  49  89 CALM      29.99F
JAMUL            N/A     48  46  91 CALM      30.05F
MT. LAGUNA OBS   N/A     44 -16   7 SE3       29.98F
CAMPO            N/A     43  34  70 NE6       30.03F

$$

ORANGE COUNTY AND THE LOS ANGELES BASIN

CITY           SKY/WX    TMP DP  RH WIND       PRES   REMARKS
JOHN WAYNE AP  CLEAR     56  48  74 CALM      30.04F
LAGUNA BEACH     N/A     47  45  92 CALM      30.03F
LAKE FOREST FR   N/A     53  41  65 CALM      29.91F
HUNTINGTON BCH   N/A     50  48  92 CALM      30.05F
LOS ALAMITOS   FAIR      51  46  81 CALM      30.04F
FULLERTON      CLEAR     55  45  68 E3        30.04F
LONG BEACH     CLEAR     54  46  74 NW3       30.04F
L.A. AP        PTCLDY    56  53  90 S6        30.04F
L.A. DOWNTOWN  CLEAR     57  49  74 CALM      30.04F

$$

THE INLAND EMPIRE

CITY           SKY/WX    TMP DP  RH WIND       PRES   REMARKS
CORONA         CLEAR     51  48  89 CALM      30.06S
CHINO          CLEAR     48  46  93 CALM      30.06S
ONTARIO        CLEAR     58  47  66 SE3       30.04F
SAN BERNARDINO FAIR      55  44  67 CALM      30.06S
RIVERSIDE AP   CLEAR     54  47  77 CALM      30.05F
MORENO VALLEY    N/A     53  51  91 S2        28.18F
MARCH ARB      PTCLDY    46  46 100 W3        30.05S
HORSETHIEF CYN   N/A     50  45  80 NW2       30.04F
PERRIS           N/A     53  50  89 CALM      30.04S
HEMET EAST       N/A     51  31  46 CALM      29.97F
FRENCH VALLEY  FAIR      50  46  87 CALM      30.06S
TEMECULA         N/A     50  46  84 W2        30.04F

$$

SAN BERNARDINO AND RIVERSIDE COUNTY MOUNTAINS

CITY           SKY/WX    TMP DP  RH WIND       PRES   REMARKS
BIG BEAR AP    PTCLDY    27  18  69 CALM      30.16F
ANGELUS OAKS     N/A     41  21  45 CALM      30.02F

$$

SOUTHERN DESERT INCLUDING THE COACHELLA VALLEY

CITY           SKY/WX    TMP DP  RH WIND       PRES   REMARKS
PALM SPRINGS   PTCLDY    65  38  36 N7        29.99F
THOUSAND PALMS   N/A     63  36  36 W3        29.94F
PALM DESERT      N/A     64  42  44 CALM      29.87F
THERMAL        PTCLDY    63  41  44 N5        29.94F
BORREGO AP     PTSUNNY   54  36  50 CALM      29.97S
BLYTHE         PTCLDY    57  21  24 N5        29.96F
IMPERIAL AP    PTCLDY    56  39  53 W6        29.95S
EL CENTRO NAS  PTCLDY    61  30  31 W7        29.96F
YUMA AZ        PTCLDY    63  34  33 E3        29.95F
MEXICALI         N/A    N/A N/A N/A MISG        N/A

$$

UPPER DESERT

CITY           SKY/WX    TMP DP  RH WIND       PRES   REMARKS
HESPERIA         N/A     47  28  46 CALM      30.06F
APPLE VALLEY     N/A     41  32  69 CALM      30.09S
PALMDALE       PTCLDY    47  31  53 CALM      30.06F
LANCASTER      PTCLDY    44  27  51 W9        30.06F
EDWARDS AFB    PTCLDY    46  33  60 CALM      30.03F
DAGGETT        PTCLDY    55  30  38 SW7       30.03F
29 PALMS N     PTCLDY    55  25  31 NW7       30.09F
NEEDLES        PTCLDY    58  29  33 CALM      29.99F

$$

REGIONAL REPORTS

CITY           SKY/WX    TMP DP  RH WIND       PRES   REMARKS
SANTA BARBARA  PTCLDY    48  46  93 CALM      30.03F
SANDBERG       PTCLDY    48  34  58 W6        30.10F
LAS VEGAS NV   MOCLDY    59  29  31 CALM      30.00F
PHOENIX AZ     MOCLDY    63  40  42 SE3       29.95F
TIJUANA        CLEAR     52  52 100 CALM      30.07F

$$

OFFSHORE ISLANDS

CITY           SKY/WX    TMP DP  RH WIND       PRES   REMARKS
CATALINA ARPT  CLEAR     52  35  52 W6        30.05F
SAN CLEMENTE I PTCLDY    53  53 100 MISG      30.07F
SAN NICOLAS IS PTCLDY    55  50  83 NW16      30.05F

$$

MARINE AND OFFSHORE BUOY REPORTS

STATION/POSITION SKY/WX   TEMP    WIND        PRES    VSBY  SWELL
                          AIR SEA DIR/SP/G                  HT/PER/DIR
                          (F)     (DEG/KT/KT) (MB)    (MI)  (FT/S/D)
TANNER BANKS               58 59              1018.0F
S CLEMENTE BASIN           58 60  300/ 10/ 12 1017.5F         5/290/14
SAN NICOLAS IS.               58                N/A           7/300/13
SO. S. ROSA ISLA           57 57  310/ 14/ 17 1017.6F         7/300/14
W. S. BARBARA CH                              1017.4F         5/270/13
M. S. BARBARA CH           56 56  120/  2/  6 1017.5F         5/260/14
S. MONICA BASIN            58 58  260/  2/  4 1017.2F         5/260/14
S PEDRO CHANNEL               59                N/A           3/270/14
CMP PENDLETON NS              60                N/A           2/230/14
OCEANSIDE OFFSHR              61                N/A           2/250/14
TORREY PINES OTR              60                N/A           3/280/14
SAN DIEGO BAY                 63              1017.2F
IMPERIAL BEACH                60                N/A           3/270/14
POINT LOMA SOUTH              60                N/A           3/280/13

$$



 

View Past Reports for San Diego, CA.

Products Courtesy of NOAA-NWS
NWS Information Parsing Script by Ken True at Saratoga Weather - Script by SE Lincoln Weather.